METAR Formatted Surface Weather Observation
Issued by NWS Albuquerque, NM

Home | Current Version | Previous Version | Text Only | Print | Product List | Glossary On
Versions: 1 2 3 4 5 6 7 8 9 10 11 12 13 14 15 16 17 18 19 20 21 22 23 24 25 26 27 28 29 30 31 32 33 34 35 36 37 38 39 40 41 42 43 44 45 46 47 48 49 50
000
SAUS45 KABQ 250254
MTRABQ
METAR KABQ 250252Z COR 12013KT 10SM FEW040 BKN080 BKN100 12/07 A2996
RMK AO2 PK WND 22045/0158 WSHFT 0148 LTG DSNT E AND SW RAB0156E43
TSB06E25 SLP103 MTNS OBSC E-SE VCSH E-SE P0008 60008 T01170067 51023



USA.gov is the U.S. government's official web portal to all federal, state and local government web resources and services.